Find Starlink 3739

NORAD ID: 52266 Int'l Des: 2022-041 Owner: SPXS Country: US Constellation: starlink operational
LEOCIRCULAR

現在のビュー

3D地球を読み込み中...

About Starlink 3739

Starlink 3739 (NORAD 52266) is a starlink constellation satellite (v1.5) launched Apr 21, 2022 by SPXS of US. It operates in LEO, CIRCULAR orbit with a mass of 297.00 kg.

Starlink 3739について

説明を読み込み中...

次回通過

Passes for default location (London). Set your location on the main map for personalized predictions.

高度履歴

Loading altitude history...

軌道要素

1 52266U 22041F 26167.32825653 .00015240 00000-0 95905-3 0 9999
2 52266 53.2146 26.2682 0001110 100.7669 259.3449 15.09390441229254
Epoch: Jun 16, 2026 • Age: 11 hours

現在のステータス

高度 543.7 km
速度 7.60 km/s
衛星直下点 52.34°N, 96.85°W
打ち上げ日 Apr 21, 2022
運用期間 4.1 years
タイプ internet

技術仕様

分類 Payload
質量 297.00 kg
乾燥質量 275.00 kg
総質量 297.00 kg
長さ 0.20 m
直径 2.80 m
スパン 9.00 m
形状 Box + pan
製造者 SPXS
バスタイプ Starlink
フェーズステータス In Orbit
所有者/国 SPXS/US

Most Searched